Location: Peralejo
(40.5415°N, 4.1259°W)
Time: 19:20:04
(UTC+00:00)

Cosmos 371 Rocket - Pass Details

Date: 18 April 2024
Orbit: 680 x 694 km, 74.0° (Epoch: 18 May)

Event Time Altitude Azimuth Distance (km) Brightness Sun altitude
Rises 20:11:39 0° 347° (NNW) 3,047 7.2 -13.6°
Reaches altitude 10° 20:14:05 10° 355° (N) 2,128 6.3 -14.0°
Maximum altitude 20:18:35 40° 65° (ENE) 1,007 3.8 -14.7°
Enters shadow 20:20:49 25° 118° (ESE) 1,371 4.2 -15.1°
